Location: Camp Carl - Ravenna
(41.1174°N, 81.1001°W)
Time: 09:08:45
(UTC-04:00)

Hubble Space Telescope - Visible Passes

Search period start: 23 May 2018 00:00
Search period end: 02 June 2018 00:00
Orbit: 537 x 541 km, 28.5° (Epoch: 22 May)

Date Brightness Start Highest point End Pass type
(mag) Time Alt. Az. Time Alt. Az. Time Alt. Az.
30 May 2.9 05:20:37 10° SSW 05:22:27 13° S 05:24:16 10° SE visible
31 May 2.9 05:09:56 10° SSW 05:11:59 13° S 05:14:01 10° SE visible
01 Jun 2.8 04:59:29 10° SSW 05:01:31 14° S 05:03:40 10° SE visible
